Chandlersville, OH

4:01 AM EST on February 26, 2017 (GMT -0500)
Zanesville Municipal

Weather History for KZZV - June, 2013

Change the Weather History Date:

Sunday, June 16, 2013

  Actual Average Record
Temperature  
Mean Temperature 71 °F 70 °F  
Max Temperature 76 °F 81 °F 94 °F (1952)
Min Temperature 65 °F 58 °F 45 °F (1961)
Degree Days  
Heating Degree Days 0 1  
Month to date heating degree days 18 26  
Since 1 June heating degree days 18 26  
Since 1 July heating degree days 5569 5565  
Cooling Degree Days 6 5  
Month to date cooling degree days 62 65  
Year to date cooling degree days 170 119  
Since 1 June cooling degree days 62 65  
Growing Degree Days 20 (Base 50)    
Moisture  
Dew Point 63 °F    
Average Humidity 79    
Maximum Humidity 93    
Minimum Humidity 64    
Precipitation  
Precipitation 0.08 in 0.14 in 2.27 in (1956)
Month to date precipitation 1.87 2.11  
Year to date precipitation 12.46 17.57  
Sea Level Pressure  
Sea Level Pressure 29.96 in    
Wind  
Wind Speed 7 mph (SW)    
Max Wind Speed 21 mph    
Max Gust Speed 26 mph    
Visibility 9 miles    
Events Rain    
T = Trace of Precipitation, MM = Missing Value Source: NWS Daily Summary

Daily Weather History Graph

Daily Weather History Graph

Search for Another Location

Airport or City:

Trip Planner

Search our weather history database for the weather conditions in past years. The results will help you decide how hot, cold, wet, or windy it might be!

Date:

Astronomy

Jun. 16, 2013 Rise Set
Actual Time 5:58 AM EDT 8:58 PM EDT
Civil Twilight 5:25 AM EDT 9:31 PM EDT
Nautical Twilight 4:44 AM EDT 10:12 PM EDT
Astronomical Twilight 3:55 AM EDT 11:01 PM EDT
Moon 1:32 PM EDT (6/16) 1:02 AM EDT (6/16)
Length of Visible Light 16h 05m
Length of Day
15h 00m
Waxing Crescent, 49% of the Moon is Illuminated
Jun 16
Waxing Crescent
Jun 16
First Quarter
Jun 23
Full
Jun 30
Last Quarter
Jul 8
New

Hourly Weather History & Observations

Time (EDT) Temp. Dew Point Humidity Pressure Visibility Wind Dir Wind Speed Gust Speed Precip Events Conditions
12:53 AM 69.1 °F 57.0 °F 65% 29.98 in 10.0 mi South 3.5 mph - N/A   Overcast
1:53 AM 69.1 °F 57.9 °F 68% 29.96 in 10.0 mi South 4.6 mph - N/A   Overcast
2:53 AM 69.1 °F 57.9 °F 68% 29.96 in 10.0 mi South 5.8 mph - N/A   Overcast
3:53 AM 69.1 °F 57.9 °F 68% 29.94 in 10.0 mi South 5.8 mph - N/A   Overcast
4:53 AM 69.1 °F 57.9 °F 68% 29.94 in 10.0 mi SSW 6.9 mph - N/A   Partly Cloudy
5:53 AM 66.9 °F 57.9 °F 73% 29.94 in 10.0 mi SSW 5.8 mph - N/A   Mostly Cloudy
6:43 AM 66.2 °F 60.8 °F 83% 29.99 in 1.5 mi West 10.4 mph 24.2 mph 0.06 in Rain Heavy Rain
6:53 AM 66.0 °F 63.0 °F 90% 29.97 in 2.5 mi WSW 6.9 mph 16.1 mph 0.08 in Rain Light Rain
7:00 AM 64.4 °F 62.6 °F 94% 29.98 in 7.0 mi SW 4.6 mph - 0.00 in Rain Light Rain
7:53 AM 66.0 °F 63.0 °F 90% 29.97 in 7.0 mi SSW 4.6 mph - 0.00 in   Overcast
8:53 AM 66.9 °F 64.0 °F 90% 29.96 in 8.0 mi SSW 6.9 mph - 0.00 in   Clear
9:53 AM 68.0 °F 64.9 °F 90% 29.97 in 9.0 mi SW 8.1 mph - N/A   Mostly Cloudy
10:53 AM 69.1 °F 64.9 °F 87% 29.95 in 10.0 mi SSW 10.4 mph - 0.00 in   Mostly Cloudy
11:53 AM 71.1 °F 64.9 °F 81% 29.96 in 10.0 mi WSW 8.1 mph 17.3 mph 0.00 in   Mostly Cloudy
12:53 PM 72.0 °F 64.0 °F 76% 29.95 in 10.0 mi SW 12.7 mph 20.7 mph N/A   Mostly Cloudy
1:34 PM 71.6 °F 64.4 °F 78% 29.97 in 10.0 mi WSW 9.2 mph - 0.00 in   Overcast
1:53 PM 72.0 °F 64.0 °F 76% 29.95 in 10.0 mi WSW 6.9 mph - 0.00 in   Overcast
2:53 PM 72.0 °F 64.9 °F 78% 29.95 in 10.0 mi SW 10.4 mph - N/A   Overcast
3:53 PM 73.0 °F 64.9 °F 76% 29.95 in 10.0 mi SW 11.5 mph 18.4 mph N/A   Overcast
4:53 PM 75.9 °F 66.0 °F 71% 29.96 in 10.0 mi WSW 10.4 mph - N/A   Scattered Clouds
5:07 PM 75.2 °F 64.4 °F 69% 29.97 in 10.0 mi West 9.2 mph - N/A   Mostly Cloudy
5:16 PM 75.2 °F 64.4 °F 69% 29.97 in 10.0 mi WSW 9.2 mph 17.3 mph N/A   Scattered Clouds
5:25 PM 75.2 °F 64.4 °F 69% 29.96 in 10.0 mi WSW 9.2 mph - N/A   Mostly Cloudy
5:35 PM 75.2 °F 64.4 °F 69% 29.96 in 10.0 mi WSW 12.7 mph 19.6 mph N/A   Mostly Cloudy
5:53 PM 75.9 °F 64.0 °F 67% 29.94 in 10.0 mi WSW 10.4 mph 20.7 mph N/A   Mostly Cloudy
6:05 PM 75.2 °F 62.6 °F 65% 29.95 in 10.0 mi SW 12.7 mph 19.6 mph N/A   Scattered Clouds
6:53 PM 75.0 °F 63.0 °F 66% 29.93 in 10.0 mi WSW 9.2 mph - N/A   Clear
7:53 PM 73.0 °F 64.9 °F 76% 29.94 in 10.0 mi SSW 5.8 mph - N/A   Partly Cloudy
8:53 PM 72.0 °F 64.9 °F 78% 29.94 in 10.0 mi SSW 5.8 mph - N/A   Clear
9:53 PM 70.0 °F 64.9 °F 84% 29.96 in 10.0 mi SSW 3.5 mph - N/A   Clear
10:53 PM 69.1 °F 64.9 °F 87% 29.96 in 10.0 mi SSW 5.8 mph - N/A   Clear
11:53 PM 68.0 °F 64.9 °F 90% 29.96 in 10.0 mi SSW 5.8 mph - N/A   Clear